Volver al catálogo

FLOCK 4G 16

ActivoCienciaPO
NORAD 62638·PAYLOAD·🇺🇸 United States

Lanzado Jan 14, 2025 desde Vandenberg Space Force Base

Loading…

Próximos Pases (próximas 24 horas)

TLE

EnvejeciendoSource: Space-Track

Época: Sep 7, 2026, 20:06 UTC

1 62638U 25009AF  26250.83760609  .05968266  24647-5  14991-2 0  9991
2 62638  97.3651 346.8474 0014946 274.9589  84.9998 16.28711644 92550

Sigue FLOCK 4G 16 en tiempo real con AllMySat

Download on the App Store